Freeland, MI

3:57 AM EST on December 04, 2016 (GMT -0500)
MBS International

Weather History for KMBS - December, 2014

Change the Weather History Date:

Monday, December 8, 2014

  Actual Average Record
Temperature  
Mean Temperature 34 °F 30 °F  
Max Temperature 41 °F 36 °F 44 °F (1999)
Min Temperature 26 °F 24 °F 1 °F (2005)
Degree Days  
Heating Degree Days 31    
Month to date heating degree days 290  
Since 1 July heating degree days 1786  
Cooling Degree Days 0    
Month to date cooling degree days 0  
Year to date cooling degree days 539  
Moisture  
Dew Point 27 °F    
Average Humidity 74    
Maximum Humidity 96    
Minimum Humidity 51    
Precipitation  
Precipitation 0.11 in 0.06 in 0.16 in (2008)
Month to date precipitation 0.11 0.54  
Year to date precipitation 30.48 30.22  
Snow  
Snow 0.40 in - - ()
Month to date snowfall 0.4  
Since 1 July snowfall 3.3  
Snow Depth 0.00 in    
Sea Level Pressure  
Sea Level Pressure 30.14 in    
Wind  
Wind Speed 7 mph (South)    
Max Wind Speed 20 mph    
Max Gust Speed 25 mph    
Visibility 6 miles    
Events Snow    
T = Trace of Precipitation, MM = Missing Value Source: NWS Daily Summary

Daily Weather History Graph

Daily Weather History Graph

Search for Another Location

Airport or City:

Trip Planner

Search our weather history database for the weather conditions in past years. The results will help you decide how hot, cold, wet, or windy it might be!

Date:

Astronomy

Dec. 08, 2014 Rise Set
Actual Time 7:56 AM EST 4:59 PM EST
Civil Twilight 7:24 AM EST 5:32 PM EST
Nautical Twilight 6:48 AM EST 6:08 PM EST
Astronomical Twilight 6:13 AM EST 6:42 PM EST
Moon 7:24 PM EST (12/8) 9:24 AM EST (12/8)
Length of Visible Light 10h 08m
Length of Day
9h 03m
Waning Gibbous, 95% of the Moon is Illuminated
Dec 8
Waning Gibbous
Dec 14
Last Quarter
Dec 21
New
Dec 28
First Quarter
Jan 4
Full

Hourly Weather History & Observations

Time (EST) Temp. Windchill Dew Point Humidity Pressure Visibility Wind Dir Wind Speed Gust Speed Precip Events Conditions
12:53 AM 30.9 °F 21.7 °F 19.9 °F 64% 30.40 in 10.0 mi SE 11.5 mph - N/A   Partly Cloudy
1:53 AM 30.9 °F 24.3 °F 21.9 °F 69% 30.38 in 10.0 mi SE 6.9 mph - N/A   Clear
2:53 AM 30.0 °F 26.5 °F 23.0 °F 75% 30.36 in 10.0 mi East 3.5 mph - N/A   Clear
3:53 AM 28.0 °F 22.8 °F 23.0 °F 81% 30.32 in 10.0 mi ESE 4.6 mph - N/A   Clear
4:53 AM 27.0 °F 23.0 °F 23.0 °F 85% 30.30 in 10.0 mi NNW 3.5 mph - N/A   Clear
5:53 AM 28.0 °F - 24.1 °F 85% 30.30 in 10.0 mi Calm Calm - N/A   Clear
6:53 AM 27.0 °F 23.0 °F 23.0 °F 85% 30.28 in 10.0 mi ESE 3.5 mph - N/A   Clear
7:53 AM 26.1 °F 19.4 °F 23.0 °F 88% 30.26 in 10.0 mi SSE 5.8 mph - N/A   Clear
8:53 AM 32.0 °F 26.4 °F 24.1 °F 73% 30.24 in 10.0 mi SSE 5.8 mph - N/A   Clear
9:53 AM 36.0 °F 28.0 °F 23.0 °F 59% 30.21 in 10.0 mi South 11.5 mph - N/A   Clear
10:53 AM 37.9 °F 29.2 °F 23.0 °F 55% 30.18 in 10.0 mi South 15.0 mph - N/A   Clear
11:53 AM 39.9 °F 31.4 °F 24.1 °F 53% 30.14 in 10.0 mi South 16.1 mph - N/A   Clear
12:53 PM 41.0 °F 34.7 °F 24.1 °F 51% 30.10 in 10.0 mi South 10.4 mph - N/A   Mostly Cloudy
1:53 PM 41.0 °F 33.9 °F 25.0 °F 53% 30.08 in 10.0 mi SSW 12.7 mph - N/A   Scattered Clouds
2:53 PM 41.0 °F 35.2 °F 25.0 °F 53% 30.06 in 10.0 mi South 9.2 mph - N/A   Mostly Cloudy
3:53 PM 41.0 °F 34.7 °F 26.1 °F 55% 30.05 in 10.0 mi South 10.4 mph - N/A   Mostly Cloudy
4:53 PM 39.9 °F 34.5 °F 26.1 °F 58% 30.05 in 10.0 mi South 8.1 mph - N/A   Overcast
5:53 PM 39.9 °F 33.9 °F 26.1 °F 58% 30.05 in 10.0 mi South 9.2 mph - N/A   Overcast
6:37 PM 37.0 °F 31.6 °F 28.9 °F 73% 30.03 in 6.0 mi SSW 6.9 mph - 0.00 in Snow Light Snow
6:53 PM 36.0 °F 31.1 °F 30.0 °F 79% 30.06 in 9.0 mi SSW 5.8 mph - 0.00 in   Overcast
7:53 PM 35.1 °F 30.1 °F 32.0 °F 89% 30.07 in 3.0 mi SSW 5.8 mph - 0.00 in Snow Light Snow
8:11 PM 34.0 °F 29.8 °F 32.0 °F 92% 30.04 in 3.0 mi SSW 4.6 mph - 0.00 in Snow Light Snow
8:34 PM 34.0 °F 29.8 °F 32.0 °F 92% 30.04 in 2.0 mi South 4.6 mph - 0.00 in Snow Light Snow
8:45 PM 34.0 °F 29.8 °F 32.0 °F 92% 30.04 in 1.2 mi South 4.6 mph - 0.01 in Snow Light Snow
8:53 PM 34.0 °F 31.0 °F 32.0 °F 92% 30.07 in 1.0 mi South 3.5 mph - 0.02 in Snow Light Snow
9:02 PM 34.0 °F 31.0 °F 32.0 °F 92% 30.04 in 1.0 mi South 3.5 mph - 0.00 in Snow Light Snow
9:22 PM 34.0 °F 29.8 °F 32.0 °F 92% 30.04 in 1.0 mi South 4.6 mph - 0.01 in Snow Light Snow
9:44 PM 34.0 °F 29.8 °F 32.0 °F 92% 30.04 in 1.0 mi SSE 4.6 mph - 0.02 in Snow Light Snow
9:53 PM 34.0 °F 29.8 °F 32.0 °F 92% 30.06 in 1.0 mi SSE 4.6 mph - 0.02 in Snow Light Snow
10:18 PM 34.0 °F 29.8 °F 32.0 °F 92% 30.04 in 1.0 mi South 4.6 mph - 0.01 in Snow Light Snow
10:53 PM 34.0 °F 28.8 °F 32.0 °F 92% 30.06 in 1.8 mi South 5.8 mph - 0.02 in Snow Light Snow
11:05 PM 34.0 °F 29.8 °F 32.0 °F 92% 30.04 in 2.0 mi South 4.6 mph - 0.00 in Snow Light Snow
11:53 PM 34.0 °F 28.8 °F 32.0 °F 92% 30.06 in 2.0 mi South 5.8 mph - 0.00 in Snow Light Snow